This is the latest recevied weather packets stored in our database for station/object KC3QLX. If no packets are shown the sender has not sent any weather packets the latest 10 day(s).
| Time | Temp. | Humidity | Pressure | Rain* | Wind** | Luminosity | Snow |
|---|---|---|---|---|---|---|---|
| 1778116786 | 11.67° C | 95% | 1010.2 hPa | 0 mm | - | 0 W/m² | - |
| 1778116483 | 12.22° C | 96% | 1010.2 hPa | 0 mm | - | 0 W/m² | - |
| 1778116178 | 12.22° C | 97% | 1009.9 hPa | 0 mm | - | 0 W/m² | - |
| 1778115873 | 12.22° C | 97% | 1009.9 hPa | 0 mm | - | 0 W/m² | - |
| 1778115570 | 12.22° C | 96% | 1009.9 hPa | 0 mm | - | 0 W/m² | - |
| 1778115267 | 12.22° C | 96% | 1009.8 hPa | 0 mm | - | 0 W/m² | - |
| 1778114964 | 12.78° C | 97% | 1009.7 hPa | 0 mm | - | 0 W/m² | - |
| 1778114661 | 12.78° C | 98% | 1009.4 hPa | 0 mm | - | 0 W/m² | - |
| 1778114359 | 13.33° C | 97% | 1009.4 hPa | 0 mm | - | 0 W/m² | - |
| 1778114053 | 13.33° C | 98% | 1009 hPa | 0 mm | - | 0 W/m² | - |
| 1778113749 | 13.89° C | 98% | 1008.8 hPa | 0 mm | - | 0 W/m² | - |
| 1778113445 | 13.89° C | 99% | 1008.7 hPa | 0 mm | - | 0 W/m² | - |
| 1778113143 | 14.44° C | 99% | 1008.5 hPa | 0 mm | - | 0 W/m² | - |
| 1778112839 | 14.44° C | 98% | 1008.5 hPa | 0 mm | - | 0 W/m² | - |
| 1778112537 | 14.44° C | 98% | 1008.2 hPa | 0 mm | - | 0 W/m² | - |
| 1778112231 | 14.44° C | 99% | 1008.1 hPa | 0 mm | - | 0 W/m² | - |
| 1778111928 | 15.56° C | 99% | 1007.9 hPa | 0 mm | - | 0 W/m² | - |
| 1778111625 | 16.11° C | 99% | 1007.8 hPa | 0 mm | - | 0 W/m² | - |
| 1778111321 | 16.11° C | 99% | 1007.7 hPa | 0 mm | - | 2 W/m² | - |
| 1778111019 | 16.11° C | 99% | 1007.6 hPa | 0 mm | - | 0 W/m² | - |
| 1778110716 | 16.11° C | 99% | 1007.5 hPa | 0 mm | - | 0 W/m² | - |
| 1778110412 | 16.11° C | 99% | 1007.6 hPa | 0 mm | - | 0 W/m² | - |
| 1778110109 | 16.11° C | 99% | 1007.5 hPa | 0 mm | - | 1 W/m² | - |
| 1778109805 | 16.11° C | 99% | 1007.5 hPa | 0 mm | - | 2 W/m² | - |
| 1778109501 | 16.11° C | 99% | 1007.6 hPa | 0 mm | - | 6 W/m² | - |
* Rain latest hour (hover to see other rain measurements)
** Current wind speed in m/s (hover to see current wind gust speed)